<?xml version="1.0" encoding="UTF-8" standalone="no" ?>
<gpx xmlns="http://www.topografix.com/GPX/1/1" xmlns:xsi="http://www.w3.org/2001/XMLSchema-instance" xsi:schemaLocation="http://www.topografix.com/GPX/1/1 http://www.topografix.com/GPX/1/1/gpx.xsd" version="1.1" creator="VisuGPX - https://www.visugpx.com">
  <metadata>
    <name>Honfleur les rhodos</name>
    <desc><![CDATA[Promenade dans les rhododendrons qui fleurissent au printemps]]></desc>
  </metadata>
  <trk>
    <name><![CDATA[192]]></name>
    <trkseg>
      <trkpt lat="49.40689" lon="0.19397">
        <ele>111</ele>
        <time>2015-06-09T09:17:24Z</time>
      </trkpt>
      <trkpt lat="49.40704" lon="0.19405">
        <ele>111</ele>
        <time>2015-06-09T09:17:24Z</time>
      </trkpt>
      <trkpt lat="49.40709" lon="0.19408">
        <ele>111</ele>
        <time>2015-06-09T09:17:24Z</time>
      </trkpt>
      <trkpt lat="49.40715" lon="0.19402">
        <ele>111</ele>
        <time>2015-06-09T09:17:24Z</time>
      </trkpt>
      <trkpt lat="49.40721" lon="0.19396">
        <ele>111</ele>
        <time>2015-06-09T09:17:24Z</time>
      </trkpt>
      <trkpt lat="49.40728" lon="0.19393">
        <ele>111</ele>
        <time>2015-06-09T09:17:24Z</time>
      </trkpt>
      <trkpt lat="49.40734" lon="0.19388">
        <ele>111</ele>
        <time>2015-06-09T09:17:24Z</time>
      </trkpt>
      <trkpt lat="49.40739" lon="0.19378">
        <ele>111</ele>
        <time>2015-06-09T09:17:24Z</time>
      </trkpt>
      <trkpt lat="49.40747" lon="0.19373">
        <ele>111</ele>
        <time>2015-06-09T09:17:24Z</time>
      </trkpt>
      <trkpt lat="49.40754" lon="0.19369">
        <ele>111</ele>
        <time>2015-06-09T09:17:24Z</time>
      </trkpt>
      <trkpt lat="49.40762" lon="0.19363">
        <ele>111</ele>
        <time>2015-06-09T09:17:24Z</time>
      </trkpt>
      <trkpt lat="49.40766" lon="0.19359">
        <ele>111</ele>
        <time>2015-06-09T09:17:24Z</time>
      </trkpt>
      <trkpt lat="49.40772" lon="0.19351">
        <ele>111</ele>
        <time>2015-06-09T09:17:24Z</time>
      </trkpt>
      <trkpt lat="49.40776" lon="0.19349">
        <ele>111</ele>
        <time>2015-06-09T09:17:24Z</time>
      </trkpt>
      <trkpt lat="49.40782" lon="0.19352">
        <ele>111</ele>
        <time>2015-06-09T09:17:24Z</time>
      </trkpt>
      <trkpt lat="49.40788" lon="0.1935">
        <ele>111</ele>
        <time>2015-06-09T09:17:24Z</time>
      </trkpt>
      <trkpt lat="49.40793" lon="0.19349">
        <ele>111</ele>
        <time>2015-06-09T09:17:24Z</time>
      </trkpt>
      <trkpt lat="49.40798" lon="0.19344">
        <ele>111</ele>
        <time>2015-06-09T09:17:24Z</time>
      </trkpt>
      <trkpt lat="49.40804" lon="0.19336">
        <ele>111</ele>
        <time>2015-06-09T09:17:24Z</time>
      </trkpt>
      <trkpt lat="49.40811" lon="0.19333">
        <ele>110.8</ele>
        <time>2015-06-09T09:17:24Z</time>
      </trkpt>
      <trkpt lat="49.40817" lon="0.19327">
        <ele>110.7</ele>
        <time>2015-06-09T09:17:24Z</time>
      </trkpt>
      <trkpt lat="49.40823" lon="0.19324">
        <ele>110.6</ele>
        <time>2015-06-09T09:17:24Z</time>
      </trkpt>
      <trkpt lat="49.40841" lon="0.19318">
        <ele>110.6</ele>
        <time>2015-06-09T09:17:24Z</time>
      </trkpt>
      <trkpt lat="49.40848" lon="0.1931">
        <ele>110.8</ele>
        <time>2015-06-09T09:17:24Z</time>
      </trkpt>
      <trkpt lat="49.40855" lon="0.1931">
        <ele>110.8</ele>
        <time>2015-06-09T09:17:24Z</time>
      </trkpt>
      <trkpt lat="49.40862" lon="0.19307">
        <ele>110.9</ele>
        <time>2015-06-09T09:17:24Z</time>
      </trkpt>
      <trkpt lat="49.40872" lon="0.19306">
        <ele>110.6</ele>
        <time>2015-06-09T09:17:24Z</time>
      </trkpt>
      <trkpt lat="49.40878" lon="0.19303">
        <ele>110.4</ele>
        <time>2015-06-09T09:17:24Z</time>
      </trkpt>
      <trkpt lat="49.40885" lon="0.193">
        <ele>110.1</ele>
        <time>2015-06-09T09:17:24Z</time>
      </trkpt>
      <trkpt lat="49.40894" lon="0.193">
        <ele>110</ele>
        <time>2015-06-09T09:17:24Z</time>
      </trkpt>
      <trkpt lat="49.40901" lon="0.19301">
        <ele>110</ele>
        <time>2015-06-09T09:17:24Z</time>
      </trkpt>
      <trkpt lat="49.40905" lon="0.19302">
        <ele>110</ele>
        <time>2015-06-09T09:17:24Z</time>
      </trkpt>
      <trkpt lat="49.40907" lon="0.19305">
        <ele>110</ele>
        <time>2015-06-09T09:17:24Z</time>
      </trkpt>
      <trkpt lat="49.40912" lon="0.19306">
        <ele>110</ele>
        <time>2015-06-09T09:17:24Z</time>
      </trkpt>
      <trkpt lat="49.40916" lon="0.193">
        <ele>110</ele>
        <time>2015-06-09T09:17:24Z</time>
      </trkpt>
      <trkpt lat="49.40923" lon="0.19289">
        <ele>109.9</ele>
        <time>2015-06-09T09:17:24Z</time>
      </trkpt>
      <trkpt lat="49.40929" lon="0.19282">
        <ele>109.9</ele>
        <time>2015-06-09T09:17:24Z</time>
      </trkpt>
      <trkpt lat="49.40934" lon="0.19274">
        <ele>110</ele>
        <time>2015-06-09T09:17:24Z</time>
      </trkpt>
      <trkpt lat="49.40939" lon="0.19266">
        <ele>110</ele>
        <time>2015-06-09T09:17:24Z</time>
      </trkpt>
      <trkpt lat="49.40948" lon="0.19262">
        <ele>109.9</ele>
        <time>2015-06-09T09:17:24Z</time>
      </trkpt>
      <trkpt lat="49.40954" lon="0.19255">
        <ele>109.7</ele>
        <time>2015-06-09T09:17:24Z</time>
      </trkpt>
      <trkpt lat="49.40956" lon="0.19251">
        <ele>109.6</ele>
        <time>2015-06-09T09:17:24Z</time>
      </trkpt>
      <trkpt lat="49.40955" lon="0.19249">
        <ele>109.6</ele>
        <time>2015-06-09T09:17:24Z</time>
      </trkpt>
      <trkpt lat="49.40956" lon="0.19241">
        <ele>109.3</ele>
        <time>2015-06-09T09:17:24Z</time>
      </trkpt>
      <trkpt lat="49.4096" lon="0.19235">
        <ele>108.9</ele>
        <time>2015-06-09T09:17:24Z</time>
      </trkpt>
      <trkpt lat="49.40969" lon="0.19226">
        <ele>108.2</ele>
        <time>2015-06-09T09:17:24Z</time>
      </trkpt>
      <trkpt lat="49.40979" lon="0.19226">
        <ele>108.1</ele>
        <time>2015-06-09T09:17:24Z</time>
      </trkpt>
      <trkpt lat="49.40985" lon="0.19224">
        <ele>108</ele>
        <time>2015-06-09T09:17:24Z</time>
      </trkpt>
      <trkpt lat="49.40992" lon="0.1922">
        <ele>108</ele>
        <time>2015-06-09T09:17:24Z</time>
      </trkpt>
      <trkpt lat="49.41" lon="0.19217">
        <ele>108</ele>
        <time>2015-06-09T09:17:24Z</time>
      </trkpt>
      <trkpt lat="49.41005" lon="0.19212">
        <ele>107.8</ele>
        <time>2015-06-09T09:17:24Z</time>
      </trkpt>
      <trkpt lat="49.41009" lon="0.19205">
        <ele>107.7</ele>
        <time>2015-06-09T09:17:24Z</time>
      </trkpt>
      <trkpt lat="49.41016" lon="0.19199">
        <ele>107.4</ele>
        <time>2015-06-09T09:17:24Z</time>
      </trkpt>
      <trkpt lat="49.4102" lon="0.19189">
        <ele>107.3</ele>
        <time>2015-06-09T09:17:24Z</time>
      </trkpt>
      <trkpt lat="49.41027" lon="0.19185">
        <ele>107</ele>
        <time>2015-06-09T09:17:24Z</time>
      </trkpt>
      <trkpt lat="49.41038" lon="0.19179">
        <ele>106.8</ele>
        <time>2015-06-09T09:17:24Z</time>
      </trkpt>
      <trkpt lat="49.41044" lon="0.19175">
        <ele>106.6</ele>
        <time>2015-06-09T09:17:24Z</time>
      </trkpt>
      <trkpt lat="49.41051" lon="0.19174">
        <ele>106.4</ele>
        <time>2015-06-09T09:17:24Z</time>
      </trkpt>
      <trkpt lat="49.41056" lon="0.1917">
        <ele>106.1</ele>
        <time>2015-06-09T09:17:24Z</time>
      </trkpt>
      <trkpt lat="49.41064" lon="0.19167">
        <ele>106</ele>
        <time>2015-06-09T09:17:24Z</time>
      </trkpt>
      <trkpt lat="49.41069" lon="0.19163">
        <ele>105.9</ele>
        <time>2015-06-09T09:17:24Z</time>
      </trkpt>
      <trkpt lat="49.41076" lon="0.19164">
        <ele>105.9</ele>
        <time>2015-06-09T09:17:24Z</time>
      </trkpt>
      <trkpt lat="49.41083" lon="0.19153">
        <ele>105.5</ele>
        <time>2015-06-09T09:17:24Z</time>
      </trkpt>
      <trkpt lat="49.41087" lon="0.19147">
        <ele>105</ele>
        <time>2015-06-09T09:17:24Z</time>
      </trkpt>
      <trkpt lat="49.41092" lon="0.1915">
        <ele>104.8</ele>
        <time>2015-06-09T09:17:24Z</time>
      </trkpt>
    </trkseg>
  </trk>
</gpx>